Location: Nelson
(41.2830°S, 173.2830°E)
Time: 04:59:26
(UTC+12:00)

Cosmos 2237 Rocket - Pass Details

Date: 14 May 2021
Orbit: 836 x 848 km, 71.0° (Epoch: 16 June)

Event Time Altitude Azimuth Distance (km) Brightness Sun altitude
Rises 18:49:33 0° 336° (NNW) 3,389 5.8 -17.0°
Reaches altitude 10° 18:51:58 10° 335° (NNW) 2,463 5.1 -17.5°
Maximum altitude 18:57:39 83° 247° (WSW) 865 2.2 -18.5°
Enters shadow 19:03:08 12° 158° (SSE) 2,394 4.3 -19.6°
